TIGRISAT

Last updated on Wed Oct 29 2025 00:03:53 GMT+0000 (Coordinated Universal Time)

1 40043U 14033AK 25301.38974408 .00003849 00000+0 46014-3 0 9997 2 40043 97.7539 92.3666 0051716 114.4249 246.2374 14.83787815611233
UTC large
Height (km)
Speed (km/s)
/
Latitude / Longitude
Inclination (degrees)
Orbital Period (minutes)
Azimuth
Elevation
Range (km)
Doppler Factor

Next 0 passes for location: London (51.5072 / 0.1276)

Sorry there are no passes over London.